Simultaneous Nadir Overpasses (SNOs) Predictions

Prediction of SNOs between TERRA and METOP-C Satellite Orbit:

Table of predicted SNOs for the next 14.0 days since TLE Epoch: 5/31/2019
Index Date (TERRA) Time (TERRA) Lat,Lon (TERRA) SZA (TERRA ) Date (METOP-C) Time (METOP-C) Lat,Lon (METOP-C) SZA (METOP-C ) Distance(km) Time Diff (sec)
1 06/03/2019 12:20:55 81.31, 42.07 61.98 06/03/2019 12:20:03 81.30, 42.20 61.97 2.25 52
2 06/03/2019 13:10:22 -81.30,-150.38 118.04 06/03/2019 13:10:45 -81.30,-150.55 118.05 2.90 23
3 06/06/2019 07:55:09 81.29, 108.23 61.61 06/06/2019 07:54:26 81.30, 108.34 61.60 2.04 43
4 06/06/2019 08:44:35 -81.31, -83.81 118.35 06/06/2019 08:45:07 -81.30, -84.00 118.36 3.24 32
5 06/09/2019 03:29:23 81.29, 174.73 61.34 06/09/2019 03:28:49 81.30, 174.88 61.34 2.54 34
6 06/09/2019 04:18:49 -81.31, -17.27 118.62 06/09/2019 04:19:30 -81.30, -17.44 118.62 3.05 41
7 06/11/2019 23:03:37 81.30,-118.80 61.11 06/11/2019 23:03:13 81.30,-118.97 61.08 2.88 24
8 06/11/2019 23:53:04 -81.30, 48.85 118.89 06/11/2019 23:53:54 -81.30, 48.71 118.88 2.31 50
9 06/14/2019 18:37:50 81.29, -52.37 60.93 06/14/2019 18:37:35 81.30, -52.42 60.92 1.01 15




NCC Satellite Simultaneous Nadir Overpasses (SNOs) Prediction Service
